Regional Weather Roundup
Issued by NWS

Home | Current Version | Previous Version | Graphics & Text | Print | Product List | Glossary On
Versions: 1 2 3 4 5 6 7 8 9 10 11 12 13 14 15 16 17 18 19 20 21 22 23 24 25 26 27 28 29 30 31 32 33 34 35 36 37 38 39 40 41 42 43 44 45 46 47 48 49 50
174
ASUS43 KIND 220709
RWRIN

WEATHER ROUNDUP FOR INDIANA
NATIONAL WEATHER SERVICE INDIANAPOLIS IN
200 AM EST WED FEB 22 2017

NOTE: "FAIR" INDICATES FEW OR NO CLOUDS BELOW 12,000 FEET WITH NO
SIGNIFICANT WEATHER AND/OR OBSTRUCTIONS TO VISIBILITY.

* - STATION DOES NOT REPORT WEATHER SUCH AS PRECIPITATION OR FOG.

+ - STATION NOT QUALITY CONTROLLED BY THE NATIONAL WEATHER SERVICE.
    USE DATA WITH CAUTION...ESPECIALLY DEWPOINT AND RELATIVE
    HUMIDITY OBSERVATIONS.

INZ001>003-010>013-019-020-220800-
NORTHWEST INDIANA

CITY           SKY/WX    TMP DP  RH WIND       PRES   REMARKS
GARY /AIRPORT/ CLEAR     50  49  99 CALM      29.86F FOG
KNOX *+        PTCLDY    48  37  66 CALM      29.87S
LA PORTE +     FOG       42  42  99 CALM      29.88S VSB 1/4
MONTICELLO +   PTCLDY    52  49  89 S6        29.86F
VALPARAISO     FOG       49  49 100 CALM      29.87S VSB 1/4

$$

LMZ046-743>745-220800-
SOUTHERN LAKE MICHIGAN

STATION/POSITION TIME  TEMP    WIND        PRES    WAVE
                       AIR SEA DIR/SP/G            HT
                 (UTC) (F)     (DEG/KT/KT) (MB)    (FT)
BURNS HARBOR     0640   51     200/  6/  7 1011.9S
MICHIGAN CITY    0640   54     150/  5/  7   N/A

$$

INZ004-005-014>016-021>024-220800-
NORTH CENTRAL INDIANA

CITY           SKY/WX    TMP DP  RH WIND       PRES   REMARKS
GOSHEN         PTCLDY    49  44  83 SW5       29.87S
LOGANSPORT +   PTCLDY    50  46  87 S7        29.88F
PERU/GRISSOM   CLOUDY    54  54 100 S8        29.87F
ROCHESTER +    PTCLDY    54  50  87 S5        29.88S
SOUTH BEND     FOG       43  43 100 CALM      29.87F VSB 1/4
WARSAW +       PTCLDY    52  46  82 S3        29.87F

$$

INZ006>009-017-018-025>027-220800-
NORTHEAST INDIANA

CITY           SKY/WX    TMP DP  RH WIND       PRES   REMARKS
AUBURN +       MOCLDY    52  46  82 S5        29.89F
FORT WAYNE     CLOUDY    54  50  86 S12       29.90F
HUNTINGTON +   MOCLDY    54  53  96 S6        29.89F

$$

INZ028-029-035-036-043>045-051>053-220800-
WEST CENTRAL INDIANA

CITY           SKY/WX    TMP DP  RH WIND       PRES   REMARKS
LAFAYETTE      PTCLDY    54  51  90 S5        29.87F
TERRE HAUTE    CLOUDY    50  49  96 CALM      29.90R FOG

$$

INZ030>032-037>040-046>048-054>057-064-065-220800-
CENTRAL INDIANA

CITY           SKY/WX    TMP DP  RH WIND       PRES   REMARKS
CP ATTERBURY + CLOUDY    54  54 100 SE5       29.91F
FISHERS *+     CLOUDY    54  54 100 S5        29.90
FRANKFORT +    MOCLDY    52  50  94 S7        29.90F FOG
GREENWOOD *+   CLOUDY    55  55 100 SE8       29.91F
INDIANAPOLIS   CLOUDY    55  53  93 SE6       29.90S FOG
-EAGLE CREEK   CLOUDY    55  52  89 SE3       29.89F
KOKOMO +       CLOUDY    50  48  93 S7        29.90F
MARION +       MOCLDY    51  50  97 S3        29.91F FOG
MT COMFORT *+  CLOUDY    54  52  94 S6        29.91F
SHELBYVILLE    CLOUDY    56  53  90 SE6       29.91F FOG
ZIONSVILLE +   MOCLDY    52  51  97 CALM      29.91S FOG

$$

INZ033-034-041-042-049-050-058-059-220800-
EAST CENTRAL INDIANA

CITY           SKY/WX    TMP DP  RH WIND       PRES   REMARKS
MUNCIE         CLOUDY    58  53  84 S8        29.90F

$$

INZ060-061-067>069-081>083-085>088-220800-
SOUTHWEST INDIANA

CITY           SKY/WX    TMP DP  RH WIND       PRES   REMARKS
EVANSVILLE     CLOUDY    59  53  80 S3        29.90F
HUNTINGBURG *+ CLOUDY    58  55  90 S8        29.90F
WASHINGTON +   MOCLDY    52  50  93 CALM      29.89F FOG

$$

INZ062-063-066-070>080-084-089>092-220800-
SOUTH CENTRAL AND SOUTHEAST INDIANA

CITY           SKY/WX    TMP DP  RH WIND       PRES   REMARKS
BEDFORD +      CLOUDY   N/A N/A N/A SE5       29.90
BLOOMINGTON    CLOUDY    55  52  89 SE5       29.90F FOG
MADISON *+     CLOUDY    55  54  94 SE3       29.95S
NORTH VERNON + CLOUDY   N/A N/A N/A SE6       29.93
SEYMOUR +      CLOUDY    57  57 100 CALM      29.91F FOG

$$





USA.gov is the U.S. government's official web portal to all federal, state and local government web resources and services.